Tracking 17844 objects as of 24-August-2016
HD Live streaming from Space Station
objects crossing your sky now

MINOTAUR R/B

Track MINOTAUR R/B now!
10-day predictions


NORAD ID: 26066
Int'l Code: 2000-004F
Perigee: 749.6 km
Apogee: 797.9 km
Inclination: 100.2 °
Period: 100.2 minutes
Semi major axis: 7144 km
RCS: 1.5369 m2 (large)
Launch date: January 27, 2000
Source: United States (US)
Launch site: AIR FORCE WESTERN TEST RANGE (AFWTR)

Note: This is a ROCKET BODY
Your satellite tracking list
Your tracking list is empty





NASA's NSSDC Master Catalog

Two Line Element Set (TLE):
1 26066U 00004F   16237.52330282  .00000005  00000-0  21316-4 0  9990
2 26066 100.2033 192.3303 0033797  43.2416  91.3140 14.37551526869315
Source of the keplerian elements: AFSPC

N2YO: 867